Tracking 35275 objects as of 8-Sep-2026
HD Live streaming from Space Station
objects crossing your sky now

NUVIEW BRAVO

Track NUVIEW BRAVO now!


NORAD ID: 62457
Int'l Code: 2024-252D
Launch date: December 29, 2024
Source: United Kingdom (UK)
Launch site: AIR FORCE EASTERN TEST RANGE (AFETR)
Your satellite tracking list
Your tracking list is empty




NASA's NSSDC Master Catalog

Two Line Element Set (TLE):
1 62457U 24252D   26250.50196448 -.00000234  00000-0  00000-0 0  9991
2 62457   0.0626 169.6878 0001620  13.0937 261.4052  1.00269973  4615
Source of the keplerian elements: AFSPC